Time,TemperatureF,DewpointF,PressureIn,WindDirection,WindDirectionDegrees,WindSpeedMPH,WindSpeedGustMPH,Humidity,HourlyPrecipIn,Conditions,Clouds,dailyrainin,SoftwareType,DateUTC
2013-01-11 01:12:00,33.0,32.0,-100.00,ENE,65,19.0,27.0,99,0.00,,,0.00,,2013-01-11 01:12:00,
2013-01-11 01:33:00,33.0,32.0,-100.00,ENE,60,17.0,24.0,99,0.00,,,0.00,,2013-01-11 01:33:00,
2013-01-11 06:32:00,34.0,34.0,-100.00,East,85,6.0,7.0,99,0.00,,,0.00,,2013-01-11 06:32:00,
2013-01-11 06:42:00,34.0,34.0,-100.00,East,90,4.0,7.0,99,0.00,,,0.00,,2013-01-11 06:42:00,
2013-01-11 08:32:00,34.0,34.0,-100.00,East,85,5.0,11.0,99,0.00,,,0.00,,2013-01-11 08:32:00,
2013-01-11 08:42:00,34.0,34.0,-100.00,ENE,70,6.0,8.0,99,0.00,,,0.00,,2013-01-11 08:42:00,
2013-01-11 08:52:00,34.0,34.0,-100.00,East,95,4.0,7.0,99,0.00,,,0.00,,2013-01-11 08:52:00,
2013-01-11 09:42:00,34.0,34.0,-100.00,East,85,9.0,12.0,99,0.00,,,0.00,,2013-01-11 09:42:00,
2013-01-11 09:52:00,34.0,34.0,-100.00,East,90,6.0,12.0,99,0.00,,,0.00,,2013-01-11 09:52:00,
2013-01-11 10:02:00,34.0,34.0,-100.00,East,90,6.0,10.0,99,0.00,,,0.00,,2013-01-11 10:02:00,
2013-01-11 10:12:00,34.0,34.0,-100.00,East,100,6.0,8.0,99,0.00,,,0.00,,2013-01-11 10:12:00,
2013-01-11 10:32:00,34.0,34.0,-100.00,ENE,70,6.0,9.0,99,0.00,,,0.00,,2013-01-11 10:32:00,
2013-01-11 10:42:00,34.0,34.0,-100.00,ENE,75,5.0,7.0,99,0.00,,,0.00,,2013-01-11 10:42:00,
2013-01-11 10:52:00,34.0,34.0,-100.00,East,80,4.0,7.0,99,0.00,,,0.00,,2013-01-11 10:52:00,
2013-01-11 11:02:00,34.0,34.0,-100.00,East,85,4.0,6.0,99,0.00,,,0.00,,2013-01-11 11:02:00,
2013-01-11 11:12:00,34.0,34.0,-100.00,East,80,4.0,6.0,99,0.00,,,0.00,,2013-01-11 11:12:00,
2013-01-11 11:22:00,34.0,34.0,-100.00,East,80,6.0,7.0,99,0.00,,,0.00,,2013-01-11 11:22:00,
2013-01-11 11:32:00,34.0,34.0,-100.00,ENE,65,7.0,9.0,99,0.00,,,0.00,,2013-01-11 11:32:00,
2013-01-11 11:42:00,34.0,34.0,-100.00,East,100,6.0,9.0,99,0.00,,,0.00,,2013-01-11 11:42:00,
2013-01-11 12:03:00,34.0,34.0,-100.00,East,85,1.0,4.0,99,0.00,,,0.00,,2013-01-11 12:03:00,
2013-01-11 12:22:00,34.0,34.0,-100.00,ENE,75,4.0,5.0,99,0.00,,,0.00,,2013-01-11 12:22:00,
2013-01-11 12:42:00,34.0,34.0,-100.00,ESE,105,5.0,7.0,99,0.00,,,0.00,,2013-01-11 12:42:00,
2013-01-11 13:02:00,34.0,34.0,-100.00,East,100,7.0,9.0,99,0.00,,,0.00,,2013-01-11 13:02:00,
2013-01-11 13:33:00,34.0,34.0,-100.00,ESE,105,7.0,12.0,99,0.00,,,0.00,,2013-01-11 13:33:00,
2013-01-11 13:52:00,34.0,34.0,-100.00,ESE,115,9.0,12.0,99,0.00,,,0.00,,2013-01-11 13:52:00,
2013-01-11 15:03:00,34.0,34.0,-100.00,East,100,9.0,12.0,99,0.00,,,0.00,,2013-01-11 15:03:00,
2013-01-11 15:12:00,34.0,34.0,-100.00,East,95,9.0,12.0,99,0.00,,,0.00,,2013-01-11 15:12:00,
2013-01-11 15:42:00,34.0,34.0,-100.00,East,85,7.0,10.0,99,0.00,,,0.00,,2013-01-11 15:42:00,
2013-01-11 15:52:00,34.0,34.0,-100.00,East,90,7.0,11.0,99,0.00,,,0.00,,2013-01-11 15:52:00,
2013-01-11 16:03:00,34.0,34.0,-100.00,East,90,7.0,9.0,99,0.00,,,0.00,,2013-01-11 16:03:00,
2013-01-11 16:12:00,34.0,34.0,-100.00,East,90,9.0,12.0,99,0.00,,,0.00,,2013-01-11 16:12:00,
2013-01-11 16:22:00,35.0,34.0,-100.00,East,100,7.0,10.0,99,0.00,,,0.00,,2013-01-11 16:22:00,
2013-01-11 16:33:00,35.0,34.0,-100.00,East,95,9.0,13.0,99,0.00,,,0.00,,2013-01-11 16:33:00,
2013-01-11 16:42:00,35.0,34.0,-100.00,East,100,9.0,14.0,99,0.00,,,0.00,,2013-01-11 16:42:00,
2013-01-11 18:03:00,36.0,36.0,-100.00,East,80,7.0,11.0,99,0.00,,,0.00,,2013-01-11 18:03:00,
2013-01-11 18:12:00,36.0,36.0,-100.00,East,95,8.0,12.0,99,0.00,,,0.00,,2013-01-11 18:12:00,
2013-01-11 18:43:00,38.0,37.0,-100.00,East,100,9.0,12.0,99,0.00,,,0.00,,2013-01-11 18:43:00,
2013-01-11 19:02:00,36.0,36.0,-100.00,ENE,75,6.0,9.0,99,0.00,,,0.00,,2013-01-11 19:02:00,
2013-01-11 19:12:00,36.0,36.0,-100.00,NE,55,6.0,8.0,99,0.00,,,0.00,,2013-01-11 19:12:00,
2013-01-11 19:22:00,36.0,36.0,-100.00,NE,55,6.0,8.0,99,0.00,,,0.00,,2013-01-11 19:22:00,
2013-01-11 19:32:00,36.0,36.0,-100.00,ENE,60,7.0,9.0,99,0.00,,,0.00,,2013-01-11 19:32:00,
2013-01-11 19:43:00,36.0,36.0,-100.00,ENE,65,6.0,10.0,99,0.00,,,0.00,,2013-01-11 19:43:00,
2013-01-11 19:52:00,36.0,36.0,-100.00,ENE,70,5.0,7.0,99,0.00,,,0.00,,2013-01-11 19:52:00,
2013-01-11 20:03:00,36.0,36.0,-100.00,ENE,60,5.0,7.0,99,0.00,,,0.00,,2013-01-11 20:03:00,
2013-01-11 20:12:00,36.0,36.0,-100.00,ENE,60,4.0,6.0,99,0.00,,,0.00,,2013-01-11 20:12:00,
2013-01-11 20:22:00,36.0,36.0,-100.00,NE,50,4.0,6.0,99,0.00,,,0.00,,2013-01-11 20:22:00,
2013-01-11 20:33:00,36.0,36.0,-100.00,NE,55,4.0,4.0,99,0.00,,,0.00,,2013-01-11 20:33:00,
2013-01-11 20:43:00,36.0,36.0,-100.00,ENE,70,6.0,7.0,99,0.00,,,0.00,,2013-01-11 20:43:00,
2013-01-11 20:52:00,37.0,37.0,-100.00,ENE,70,4.0,7.0,99,0.00,,,0.00,,2013-01-11 20:52:00,
2013-01-11 21:03:00,38.0,37.0,-100.00,East,100,3.0,6.0,99,0.00,,,0.00,,2013-01-11 21:03:00,
2013-01-11 21:23:00,40.0,39.0,-100.00,East,90,10.0,14.0,99,0.00,,,0.00,,2013-01-11 21:23:00,
2013-01-11 22:12:00,41.0,41.0,-100.00,East,80,10.0,13.0,99,0.00,,,0.00,,2013-01-11 22:12:00,
2013-01-11 23:12:00,41.0,41.0,-100.00,East,100,11.0,14.0,99,0.00,,,0.00,,2013-01-11 23:12:00,